Flag for Germany Weather past 2 weeks in Düren, North Rhine-Westphalia, Germany

Now
59 °F

Cool.


Feels Like: 58 °F
Forecast: 46 / 58 °F
Wind: 7 mph from Southwest

Location: Noervenich

Current Time: May 25, 2015 at 2:36:42 PM

Latest Report: May 25, 2015 at 1:20 PM


Visibility: 5 mi

Pressure: 29.98 "Hg

Humidity: 82%

Dew point: 54 °F

Location of DürenLocation

Historic Weather in Düren — Graph

°F

Düren temperature yesterday

Maximum temperature yesterday: 68 °F (at 4:20 PM)
Minimum temperature yesterday: 52 °F (at 4:20 AM)
Average temperature yesterday: 59 °F

Past Weeks' High & Low Weather Summary

 TemperatureHumidityPressure
High81 °F (May 11, 4:20 PM)100% (May 15, 1:20 AM)30.33 "Hg (May 15, 1:20 AM)
Low39 °F (May 21, 5:20 AM)30% (May 11, 4:20 PM)29.65 "Hg (May 18, 7:20 PM)
Average56 °F67%30.07 "Hg
* Reported May 10 1:20 PM — May 25 1:20 PM, Düren, Weather by CustomWeather, © 2015

Note: Actual official high and low records may vary slightly from our data, if they occured in-between our weather recording intervals... More about our weather records

Advertising

Düren weather history for previous 24 hours

 ConditionsComfort  
Time TempWeatherWind HumidityBarometerVisibility
1:20 PM
Mon, May 25
59 °FCool.7 mph82%29.98 "Hg5 mi
12:20 PM57 °FCool.7 mph88%29.98 "Hg4 mi
11:20 AM55 °FCool.6 mph94%29.98 "Hg4 mi
10:20 AM52 °FCool.2 mph94%29.98 "Hg3 mi
9:20 AM52 °FCool.5 mph88%30.01 "Hg3 mi
8:20 AM55 °FCool.1 mph72%30.01 "Hg3 mi
7:20 AM54 °FCool.2 mph72%30.01 "Hg5 mi
6:20 AM52 °FCool.3 mph72%30.01 "Hg5 mi
5:20 AM52 °FCool.5 mph72%30.01 "Hg4 mi
4:20 AM50 °FCool.6 mph71%30.01 "Hg5 mi
3:20 AM50 °FCool.2 mph71%30.01 "Hg5 mi
2:20 AM52 °FCool.3 mph67%30.04 "Hg5 mi
1:20 AM54 °FCool.5 mph58%30.04 "Hg5 mi
12:20 AM57 °FRefreshingly cool.3 mph55%30.04 "Hg6 mi
11:20 PM
Sun, May 24
55 °FCool.2 mph67%30.04 "HgN/A
10:20 PM57 °FCool.2 mph67%30.04 "Hg6 mi
9:20 PM61 °FRefreshingly cool.5 mph59%30.04 "HgN/A
8:20 PM66 °FMild.5 mph49%30.04 "HgN/A
7:20 PM66 °FMild.3 mph49%30.04 "Hg6 mi
6:20 PM66 °FMild.6 mph49%30.04 "HgN/A
5:20 PM66 °FMild.3 mph49%30.04 "HgN/A
4:20 PM68 °FMild.5 mph49%30.07 "HgN/A
3:20 PM66 °FMild.6 mph52%30.07 "Hg6 mi
2:20 PM64 °FMild.3 mph56%30.09 "HgN/A
Weather by CustomWeather, © 2015

See weather overviewHow to use our weather pages